Torna al catalogo

SES 4

AttivoComunicazioniGEO
NORAD 38087·PAYLOAD·🇱🇺 Luxembourg

Lanciato Feb 14, 2012 da Baikonur Cosmodrome

Loading…

TLE

AggiornatoSource: CelesTrak SupGP

Epoca: Sep 13, 2026, 23:44 UTC

1 38087C 12007A   26256.98958333 -.00000077  00000+0  00000+0 0  2564
2 38087   0.0104  69.4471 0002453 105.0502 152.7335  1.00270992    18

Traccia SES 4 in tempo reale con AllMySat

Download on the App Store